1518692400.62,44860,9.94,72992.8,-1.91,-36.67,-36.85,0,*5B
1518692401.89,44861,9.94,72994.8,-1.93,-35.95,-35.95,0,*54
1518692403.15,44862,9.94,72992.5,-1.93,-37.21,-37.63,0,*51
1518692404.39,44863,9.94,72992.0,-1.93,-37.27,-37.63,0,*56
1518692405.62,44864,9.94,72996.8,-1.93,-37.09,-37.45,0,*59
1518692406.85,44865,9.94,72998.3,-1.93,-37.03,-37.39,0,*59
1518692408.11,44866,9.94,72992.8,-1.95,-36.85,-36.91,0,*50
1518692409.36,44867,9.94,72994.3,-1.95,-36.67,-36.91,0,*5D
1518692410.61,44868,9.94,72994.8,-1.95,-35.77,-36.01,0,*59
1518692411.86,44869,9.94,72992.8,-1.95,-36.49,-36.73,0,*53
1518692413.12,44870,9.94,72992.3,-1.93,-36.25,-36.49,0,*5E
1518692414.38,44871,9.94,72992.0,-1.95,-36.37,-36.67,0,*56
1518692415.62,44872,9.94,72988.8,-1.95,-36.55,-36.73,0,*54
1518692416.86,44873,9.94,72990.5,-1.95,-36.31,-36.67,0,*52
1518692418.12,44874,9.94,72992.3,-1.95,-36.91,-37.15,0,*5B
1518692419.38,44875,9.94,72994.8,-1.95,-36.37,-36.55,0,*53
1518692420.64,44876,9.94,72990.8,-1.95,-37.27,-37.63,0,*54
1518692421.87,44877,9.94,72990.8,-1.93,-36.31,-36.79,0,*5F
1518692423.07,44878,9.94,72994.0,-1.97,-36.67,-36.85,0,*54
1518692424.34,44879,9.94,72994.0,-1.95,-35.89,-35.95,0,*56
1518692425.57,44880,9.94,72990.0,-1.97,-35.01,-35.35,0,*58
1518692426.82,44881,9.94,72992.0,-1.95,-35.53,-35.71,0,*5C
1518692428.04,44882,9.94,72992.3,-1.93,-35.47,-35.65,0,*59
1518692429.28,44883,9.94,72992.8,-1.93,-35.65,-35.89,0,*5A
1518692430.51,44884,9.94,72994.5,-1.91,-35.47,-35.71,0,*58
1518692431.79,44885,9.94,72996.3,-1.91,-36.25,-36.49,0,*56
1518692433.0,44886,9.94,72996.3,-1.93,-36.97,-37.03,0,*51
1518692434.27,44887,9.94,72994.3,-1.91,-35.89,-35.95,0,*53
1518692435.5,44888,9.94,72994.8,-1.89,-34.77,-34.95,0,*54
1518692436.71,44889,9.94,72992.0,-1.89,-35.59,-35.77,0,*55
1518692437.94,44890,9.94,72992.3,-1.89,-36.55,-36.79,0,*5F
1518692439.17,44891,9.94,72992.8,-1.89,-36.55,-36.79,0,*5E
1518692440.38,44892,9.94,72994.5,-1.89,-35.89,-36.01,0,*50
1518692441.66,44893,9.94,72988.0,-1.91,-35.65,-35.83,0,*53
1518692442.92,44894,9.94,72994.3,-1.91,-35.47,-35.65,0,*5C
1518692444.15,44895,9.94,72994.8,-1.89,-35.59,-35.83,0,*53
1518692445.4,44896,9.94,72996.0,-1.89,-36.79,-37.21,0,*5B
1518692446.63,44897,9.94,72992.3,-1.87,-36.55,-36.85,0,*55
1518692447.86,44898,9.94,72994.8,-1.89,-35.65,-35.89,0,*5B
1518692449.11,44899,9.94,72994.3,-1.89,-36.25,-36.55,0,*5F
1518692450.36,44900,9.94,72994.8,-1.87,-36.91,-37.33,0,*5E
1518692451.62,44901,9.94,72998.8,-1.87,-36.91,-37.15,0,*5B
1518692452.82,44902,9.94,72992.0,-1.89,-36.43,-36.73,0,*58
1518692454.08,44903,9.94,72992.5,-1.91,-36.13,-36.43,0,*56
1518692455.31,44904,9.94,72992.5,-1.89,-38.05,-38.49,0,*55
1518692456.56,44905,9.94,72994.3,-1.91,-36.49,-36.85,0,*55
1518692457.8,44906,9.94,72994.0,-1.91,-37.27,-37.57,0,*51
1518692459.06,44907,9.94,72994.8,-1.91,-37.21,-37.57,0,*56
1518692460.31,44908,9.94,72992.8,-1.91,-36.79,-36.97,0,*58
1518692461.54,44909,9.94,72994.3,-1.93,-36.43,-36.49,0,*51
1518692462.8,44910,9.94,72992.0,-1.91,-36.07,-36.49,0,*5B
1518692464.05,44911,9.94,72992.8,-1.93,-36.79,-37.09,0,*54
1518692465.28,44912,9.94,72992.0,-1.93,-35.89,-36.13,0,*51
1518692466.52,44913,9.94,72994.5,-1.93,-37.27,-37.63,0,*50
1518692467.72,44914,9.94,72994.3,-1.93,-36.67,-36.97,0,*58
1518692468.95,44915,9.94,72992.3,-1.93,-36.13,-36.31,0,*56
1518692470.2,44916,9.94,72994.8,-1.91,-35.17,-35.35,0,*57
1518692471.44,44917,9.94,72992.5,-1.91,-35.01,-35.17,0,*51
1518692472.68,44918,9.94,72994.0,-1.89,-35.23,-35.29,0,*5A
1518692473.88,44919,9.94,72992.5,-1.89,-35.29,-35.47,0,*59
1518692475.12,44920,9.94,72996.3,-1.87,-36.31,-36.73,0,*53
1518692476.32,44921,9.94,72992.5,-1.89,-36.97,-37.27,0,*50
1518692477.53,44922,9.94,72994.0,-1.89,-36.73,-37.03,0,*5F
1518692478.78,44923,9.94,72994.8,-1.87,-35.83,-36.19,0,*56
1518692480.03,44924,9.94,72992.3,-1.87,-35.35,-35.59,0,*5B
1518692481.29,44925,9.94,72990.8,-1.87,-35.71,-35.83,0,*5D
1518692482.55,44926,9.94,72992.8,-1.87,-36.37,-36.67,0,*56
1518692483.78,44927,9.94,72994.3,-1.89,-36.55,-36.79,0,*52
1518692485.01,44928,9.94,72992.0,-1.87,-36.97,-37.15,0,*56
1518692486.26,44929,9.94,72994.5,-1.87,-37.51,-38.17,0,*51
1518692487.52,44930,9.94,72990.3,-1.89,-37.69,-37.93,0,*5F
1518692488.75,44931,9.94,72990.8,-1.89,-36.91,-37.03,0,*51
1518692490.01,44932,9.94,72994.3,-1.89,-38.49,-38.91,0,*5D
1518692491.27,44933,9.94,72992.0,-1.93,-37.99,-38.29,0,*56
1518692492.53,44934,9.94,72994.0,-1.93,-36.25,-36.49,0,*5F
1518692493.78,44935,9.94,72996.5,-1.91,-35.17,-35.53,0,*56
1518692495.01,44936,9.94,72994.8,-1.91,-35.47,-35.71,0,*50
1518692496.27,44937,9.94,72994.0,-1.91,-35.17,-35.53,0,*54
1518692497.5,44938,9.94,72996.3,-1.89,-35.65,-35.77,0,*51
1518692498.75,44939,9.94,72994.5,-1.89,-36.61,-36.91,0,*5C
1518692499.96,44940,9.94,72994.3,-1.89,-36.19,-36.55,0,*55
1518692501.2,44941,9.94,72992.5,-1.89,-36.07,-36.25,0,*5C
1518692502.44,44942,9.94,72996.5,-1.87,-35.41,-35.71,0,*52
1518692503.71,44943,9.94,72994.8,-1.87,-35.71,-35.95,0,*5A
1518692504.92,44944,9.94,72996.5,-1.85,-35.77,-36.01,0,*57
1518692506.17,44945,9.94,72994.5,-1.87,-36.67,-36.91,0,*5F
1518692507.44,44946,9.94,72996.8,-1.87,-35.83,-36.01,0,*5C
1518692508.65,44947,9.94,72994.0,-1.85,-36.19,-36.55,0,*5E
1518692509.88,44948,9.94,72996.0,-1.87,-36.85,-36.97,0,*58
1518692511.13,44949,9.94,72994.0,-1.87,-36.91,-37.15,0,*57
1518692512.36,44950,9.94,72998.8,-1.87,-36.97,-37.27,0,*58
1518692513.6,44951,9.94,72994.8,-1.89,-36.07,-36.25,0,*5D
1518692514.83,44952,9.94,72994.8,-1.87,-35.71,-35.77,0,*56
1518692516.08,44953,9.94,72998.0,-1.87,-35.17,-35.35,0,*51
1518692517.32,44954,9.94,72996.0,-1.85,-34.71,-35.07,0,*54
1518692518.58,44955,9.94,72992.0,-1.85,-34.65,-34.65,0,*55
1518692519.86,44956,9.94,72996.0,-1.83,-33.89,-34.35,0,*50
1518692521.06,44957,9.94,72994.8,-1.81,-33.67,-33.83,0,*59
1518692522.32,44958,9.94,72996.5,-1.77,-33.89,-34.07,0,*54
1518692523.61,44959,9.94,72998.3,-1.77,-34.83,-35.23,0,*5F
1518692524.87,44960,9.94,72992.5,-1.77,-35.17,-35.35,0,*5E
1518692526.09,44961,9.94,72992.8,-1.73,-34.25,-34.25,0,*5B
1518692527.31,44962,9.94,72996.3,-1.73,-34.25,-34.41,0,*5A
1518692528.55,44963,9.94,72992.3,-1.71,-35.29,-35.35,0,*56
1518692529.78,44964,9.94,72994.3,-1.71,-34.25,-34.31,0,*59
1518692531.0,44965,9.94,72996.8,-1.71,-34.47,-34.77,0,*5E
1518692532.25,44966,9.94,72992.3,-1.69,-35.47,-35.65,0,*57
1518692533.51,44967,9.94,72996.0,-1.69,-34.25,-34.35,0,*57
1518692534.77,44968,9.94,72998.8,-1.67,-34.35,-34.53,0,*57
1518692536.01,44969,9.94,72992.5,-1.65,-34.07,-34.13,0,*51
1518692537.26,44970,9.94,72994.8,-1.65,-34.89,-35.07,0,*5B
1518692538.52,44971,9.94,72996.0,-1.65,-34.83,-34.89,0,*57
1518692539.79,44972,9.94,72992.0,-1.63,-34.65,-34.95,0,*57
1518692541.06,44973,9.94,72994.5,-1.61,-34.83,-35.13,0,*53
1518692542.32,44974,9.94,72998.3,-1.61,-34.31,-34.41,0,*5B
1518692543.58,44975,9.94,72996.5,-1.61,-33.55,-33.89,0,*5C
1518692544.82,44976,9.94,72998.8,-1.59,-33.83,-34.01,0,*58
1518692546.05,44977,9.94,73000.5,-1.55,-33.77,-33.95,0,*54
1518692547.28,44978,9.94,72998.3,-1.55,-34.01,-34.25,0,*51
1518692548.56,44979,9.94,72996.0,-1.53,-34.01,-34.31,0,*53
1518692549.79,44980,9.94,72996.8,-1.51,-33.61,-33.95,0,*5F
1518692551.02,44981,9.94,72996.0,-1.51,-33.89,-34.13,0,*51
1518692552.25,44982,9.94,72992.5,-1.49,-34.25,-34.47,0,*5B
1518692553.47,44983,9.94,72994.5,-1.49,-34.25,-34.41,0,*5C
1518692554.73,44984,9.94,73000.0,-1.49,-35.17,-35.41,0,*5A
1518692555.94,44985,9.94,72990.3,-1.45,-34.41,-34.71,0,*57
1518692557.17,44986,9.94,72996.5,-1.47,-34.25,-34.47,0,*51
1518692558.41,44987,9.94,72992.8,-1.45,-33.77,-33.83,0,*5D
1518692559.69,44988,9.94,72992.3,-1.43,-33.77,-33.77,0,*5F
1518692560.97,44989,9.94,72996.0,-1.43,-34.01,-34.19,0,*57
1518692562.23,44990,9.94,72996.5,-1.41,-34.35,-34.53,0,*54
1518692563.47,44991,9.94,72996.5,-1.39,-35.71,-35.89,0,*5D
1518692564.71,44992,9.94,72996.3,-1.41,-35.01,-35.07,0,*50
1518692565.92,44993,9.94,72996.3,-1.41,-35.77,-36.01,0,*55
1518692567.15,44994,9.94,72992.5,-1.41,-35.47,-35.65,0,*50
1518692568.39,44995,9.94,72994.5,-1.41,-34.53,-34.71,0,*51
1518692569.64,44996,9.94,72996.3,-1.39,-33.89,-33.95,0,*50
1518692570.87,44997,9.94,72996.5,-1.39,-34.25,-34.41,0,*5E
1518692572.15,44998,9.94,72992.5,-1.39,-34.83,-34.95,0,*54
1518692573.42,44999,9.94,72992.0,-1.31,-34.95,-35.01,0,*56
1518692574.67,45000,9.94,72996.0,-1.35,-35.17,-35.53,0,*56
1518692575.9,45001,9.94,72998.8,-1.35,-35.47,-35.71,0,*52
1518692577.13,45002,9.94,72998.5,-1.31,-34.41,-34.71,0,*53
1518692578.37,45003,9.94,72994.8,-1.35,-35.01,-35.17,0,*52
1518692579.65,45004,9.94,72992.8,-1.35,-34.19,-34.53,0,*5C
1518692580.91,45005,9.94,72994.8,-1.35,-34.25,-34.53,0,*52
1518692582.16,45006,9.94,72996.5,-1.31,-34.35,-34.59,0,*5E
1518692583.39,45007,9.94,72994.5,-1.31,-34.89,-35.01,0,*54
1518692584.65,45008,9.94,72996.5,-1.31,-34.35,-34.71,0,*5A
1518692585.91,45009,9.94,72996.0,-1.29,-34.65,-34.83,0,*5A
1518692587.17,45010,9.94,72996.0,-1.29,-34.53,-34.83,0,*57
1518692588.42,45011,9.94,72994.8,-1.29,-34.19,-34.35,0,*55
1518692589.65,45012,9.94,72992.8,-1.29,-34.65,-34.71,0,*5D
1518692590.93,45013,9.94,72998.8,-1.27,-34.01,-34.35,0,*50
1518692592.21,45014,9.94,72994.0,-1.23,-35.07,-35.23,0,*52
1518692593.42,45015,9.94,72996.5,-1.25,-34.77,-34.89,0,*52
1518692594.67,45016,9.94,72992.8,-1.23,-34.07,-34.31,0,*53
1518692595.9,45017,9.94,72996.5,-1.25,-33.89,-34.13,0,*55
1518692597.13,45018,9.94,72996.0,-1.23,-34.25,-34.47,0,*5C
1518692598.38,45019,9.94,72996.3,-1.23,-35.53,-35.59,0,*53
1518692599.66,45020,9.94,72998.8,-1.23,-34.65,-34.83,0,*5B
1518692600.92,45021,9.94,72998.8,-1.25,-35.07,-35.41,0,*56
1518692602.16,45022,9.94,72998.8,-1.23,-35.01,-35.17,0,*56
1518692603.41,45023,9.94,72996.8,-1.21,-34.35,-34.53,0,*52
1518692604.64,45024,9.94,72996.0,-1.21,-34.19,-34.25,0,*5A
1518692605.89,45025,9.94,72998.8,-1.19,-33.77,-33.95,0,*53
1518692607.17,45026,9.94,72994.3,-1.19,-34.35,-34.65,0,*59
1518692608.42,45027,9.94,72996.0,-1.19,-34.89,-35.07,0,*5A
1518692609.68,45028,9.94,72996.8,-1.17,-35.07,-35.41,0,*5E
1518692610.91,45029,9.94,73000.3,-1.17,-34.77,-34.95,0,*51
1518692612.12,45030,9.94,72996.0,-1.17,-34.71,-34.89,0,*52
1518692613.35,45031,9.94,72994.8,-1.17,-34.65,-34.71,0,*51
1518692614.59,45032,9.94,72996.3,-1.17,-34.47,-34.65,0,*57
1518692615.85,45033,9.94,72994.5,-1.15,-35.07,-35.23,0,*52
1518692617.08,45034,9.94,72998.3,-1.17,-35.41,-35.59,0,*58
1518692618.33,45035,9.94,72998.0,-1.17,-34.95,-35.07,0,*5A
1518692619.54,45036,9.94,72996.3,-1.15,-34.13,-34.41,0,*56
1518692620.81,45037,9.94,72998.8,-1.15,-35.07,-35.35,0,*51
1518692622.05,45038,9.94,72998.3,-1.15,-34.59,-34.65,0,*50
1518692623.28,45039,9.94,72998.3,-1.15,-35.17,-35.23,0,*59
1518692624.52,45040,9.94,72996.0,-1.15,-35.17,-35.35,0,*50
1518692625.78,45041,9.94,73000.5,-1.15,-35.07,-35.23,0,*57
1518692627.03,45042,9.94,73000.3,-1.15,-35.77,-35.83,0,*59
1518692628.27,45043,9.94,72998.0,-1.15,-34.83,-35.17,0,*5F
1518692629.51,45044,9.94,72996.5,-1.15,-34.83,-35.01,0,*5F
1518692630.72,45045,9.94,72998.3,-1.15,-34.41,-34.59,0,*5C
1518692631.96,45046,9.94,72994.8,-1.15,-35.17,-35.41,0,*55
1518692633.24,45047,9.94,72998.3,-1.13,-34.65,-34.83,0,*59
1518692634.48,45048,9.94,72996.0,-1.13,-34.07,-34.41,0,*5C
1518692635.77,45049,9.94,72996.5,-1.13,-34.65,-34.83,0,*57
1518692637.04,45050,9.94,72998.0,-1.13,-34.47,-34.65,0,*57
1518692638.31,45051,9.94,72996.0,-1.11,-34.53,-34.65,0,*51
1518692639.55,45052,9.94,72998.8,-1.11,-34.95,-35.29,0,*51
1518692640.84,45053,9.94,72996.0,-1.13,-35.83,-35.83,0,*54
1518692642.13,45054,9.94,72994.3,-1.13,-35.07,-35.35,0,*52
1518692643.37,45055,9.94,72996.0,-1.11,-34.95,-35.13,0,*5F
1518692644.62,45056,9.94,73000.3,-1.13,-36.31,-36.55,0,*53
1518692645.85,45057,9.94,73002.3,-1.11,-35.17,-35.35,0,*52
1518692647.05,45058,9.94,72998.0,-1.11,-34.41,-34.41,0,*5D
1518692648.3,45059,9.94,72998.8,-1.11,-34.59,-34.65,0,*53
1518692649.5,45060,9.94,72998.8,-1.11,-35.71,-36.07,0,*54
1518692650.76,45061,9.94,72998.8,-1.11,-36.25,-36.49,0,*5D
1518692651.99,45062,9.94,72996.8,-1.11,-35.17,-35.35,0,*54
1518692653.24,45063,9.94,72998.0,-1.11,-35.77,-35.95,0,*59
1518692654.46,45064,9.94,72998.0,-1.11,-36.43,-36.67,0,*54
1518692655.74,45065,9.94,72996.5,-1.13,-35.83,-36.13,0,*5B
1518692656.97,45066,9.94,72996.0,-1.13,-35.59,-35.71,0,*58
1518692658.21,45067,9.94,72998.0,-1.11,-35.95,-36.43,0,*59
1518692659.46,45068,9.94,72998.8,-1.17,-36.79,-37.09,0,*5E
1518692660.7,45069,9.94,72994.0,-1.15,-35.71,-35.83,0,*56
1518692661.94,45070,9.94,73002.3,-1.13,-36.01,-36.31,0,*56
1518692663.17,45071,9.94,73000.3,-1.15,-35.17,-35.41,0,*51
1518692664.44,45072,9.94,73000.8,-1.15,-34.83,-35.07,0,*5C
1518692665.65,45073,9.94,73002.3,-1.15,-34.89,-35.17,0,*56
1518692666.91,45074,9.94,72998.5,-1.11,-35.07,-35.35,0,*52
1518692668.2,45075,9.94,72998.0,-1.13,-34.65,-34.83,0,*58
1518692669.43,45076,9.94,73000.3,-1.11,-35.29,-35.35,0,*5C
1518692670.68,45077,9.94,73002.8,-1.11,-35.53,-35.65,0,*55
1518692671.95,45078,9.94,73000.0,-1.13,-34.83,-35.17,0,*51
1518692673.15,45079,9.94,73000.3,-1.11,-35.71,-36.07,0,*5C
1518692674.38,45080,9.94,73000.5,-1.13,-34.89,-35.17,0,*5C
1518692675.65,45081,9.94,72996.8,-1.13,-34.65,-34.71,0,*5E
1518692676.89,45082,9.94,72998.0,-1.11,-34.35,-34.59,0,*50
1518692678.12,45083,9.94,73000.3,-1.11,-35.35,-35.29,0,*56
1518692679.39,45084,9.94,73000.5,-1.11,-34.53,-34.65,0,*59
1518692680.63,45085,9.94,72998.3,-1.11,-34.25,-34.53,0,*5C
1518692681.86,45086,9.94,72998.5,-1.11,-34.83,-35.17,0,*52
1518692683.1,45087,9.94,72998.5,-1.07,-34.77,-34.83,0,*53
1518692684.31,45088,9.94,72996.5,-1.07,-34.41,-34.59,0,*5E
1518692685.57,45089,9.94,72998.5,-1.05,-34.71,-35.07,0,*54
1518692686.84,45090,9.94,72996.8,-1.07,-34.65,-34.95,0,*51
1518692688.13,45091,9.94,72998.0,-1.05,-34.31,-34.53,0,*59
1518692689.39,45092,9.94,72998.5,-1.05,-34.31,-34.47,0,*5F
1518692690.65,45093,9.94,73002.3,-1.05,-34.13,-34.31,0,*5F
1518692691.91,45094,9.94,73000.5,-1.03,-35.83,-36.25,0,*51
1518692693.13,45095,9.94,73000.3,-1.03,-35.71,-35.89,0,*58
1518692694.34,45096,9.94,72998.5,-1.03,-34.77,-34.89,0,*5D
1518692695.55,45097,9.94,72998.8,-1.03,-34.77,-34.89,0,*5C
1518692696.8,45098,9.94,73000.8,-1.03,-34.19,-34.31,0,*58
1518692698.04,45099,9.94,73000.3,-1.03,-34.53,-34.59,0,*59
1518692699.33,45100,9.94,72998.3,-1.01,-35.35,-35.53,0,*50
1518692700.54,45101,9.94,72998.8,-1.03,-35.71,-35.89,0,*54
1518692701.77,45102,9.94,72998.3,-1.03,-35.17,-35.41,0,*53
1518692703.04,45103,9.94,73000.3,-1.03,-34.95,-35.23,0,*5D
1518692704.27,45104,9.94,72998.0,-1.03,-34.83,-34.89,0,*5C
1518692705.52,45105,9.94,72998.5,-1.01,-35.41,-35.59,0,*5C
1518692706.79,45106,9.94,73002.0,-1.01,-34.53,-34.71,0,*56
1518692708.05,45107,9.94,73000.0,-1.01,-34.41,-34.53,0,*54
1518692709.28,45108,9.94,72996.8,-1.01,-34.07,-34.25,0,*58
1518692710.49,45109,9.94,72996.5,-0.99,-35.01,-35.17,0,*6E
1518692711.72,45110,9.94,73002.0,-0.99,-35.59,-35.83,0,*66
1518692712.97,45111,9.94,72996.0,-1.01,-35.41,-35.59,0,*59
1518692714.21,45112,9.94,73002.8,-1.03,-34.95,-35.13,0,*5E
1518692715.43,45113,9.94,73002.8,-0.99,-35.41,-35.59,0,*6B
1518692716.66,45114,9.94,73004.0,-0.99,-36.73,-37.09,0,*69
1518692717.9,45115,9.94,73000.5,-1.03,-36.79,-37.15,0,*5D
1518692719.11,45116,9.94,73000.3,-1.03,-36.97,-37.33,0,*5A
1518692720.34,45117,9.94,73000.8,-1.03,-36.91,-37.03,0,*5E
1518692721.6,45118,9.94,73002.5,-1.05,-36.43,-36.79,0,*54
1518692722.86,45119,9.94,73000.8,-1.05,-36.61,-36.73,0,*5F
1518692724.07,45120,9.94,73000.3,-1.07,-36.07,-36.31,0,*51
1518692725.32,45121,9.94,72998.0,-1.07,-35.77,-35.95,0,*59
1518692726.55,45122,9.94,72998.8,-1.07,-35.47,-35.65,0,*56
1518692727.81,45123,9.94,73002.3,-1.07,-35.35,-35.35,0,*57
1518692729.05,45124,9.94,72998.3,-1.07,-35.77,-36.13,0,*51
1518692730.28,45125,9.94,73002.5,-1.05,-36.01,-36.31,0,*50
1518692731.53,45126,9.94,72998.3,-1.07,-35.89,-36.25,0,*57
1518692732.75,45127,9.94,73000.8,-1.11,-35.53,-35.71,0,*54
1518692733.99,45128,9.94,73002.8,-1.07,-35.29,-35.53,0,*51
1518692735.23,45129,9.94,72998.0,-1.07,-36.49,-36.97,0,*5E
1518692736.46,45130,9.94,72998.8,-1.11,-37.21,-37.45,0,*50
1518692737.72,45131,9.94,73000.0,-1.13,-36.01,-36.13,0,*52
1518692739.01,45132,9.94,73000.3,-1.13,-35.95,-36.37,0,*59
1518692740.27,45133,9.94,72998.0,-1.13,-36.49,-36.73,0,*5A
1518692741.48,45134,9.94,73002.0,-1.15,-36.01,-36.19,0,*5B
1518692742.7,45135,9.94,73002.0,-1.17,-36.01,-36.37,0,*54
1518692743.94,45136,9.94,73002.5,-1.15,-36.13,-36.55,0,*52
1518692745.17,45137,9.94,73004.5,-1.17,-36.07,-36.37,0,*50
1518692746.38,45138,9.94,73000.8,-1.15,-37.03,-37.33,0,*5D
1518692747.6,45139,9.94,73002.8,-1.17,-37.75,-37.93,0,*55
1518692748.83,45140,9.94,73002.5,-1.17,-36.55,-36.79,0,*5D
1518692750.11,45141,9.94,73000.0,-1.19,-36.25,-36.61,0,*5C
1518692751.38,45142,9.94,73002.8,-1.19,-37.39,-37.69,0,*5A
1518692752.61,45143,9.94,73000.8,-1.21,-37.39,-37.75,0,*5D
1518692753.87,45144,9.94,72998.3,-1.23,-37.51,-37.87,0,*5B
1518692755.14,45145,9.94,72998.8,-1.23,-37.51,-37.87,0,*5A
1518692756.37,45146,9.94,73000.3,-1.25,-37.81,-38.17,0,*54
1518692757.6,45147,9.94,73000.5,-1.25,-37.99,-38.35,0,*5C
1518692758.83,45148,9.94,73000.8,-1.29,-37.69,-38.05,0,*53
1518692760.08,45149,9.94,72996.0,-1.29,-37.51,-37.93,0,*59
1518692761.29,45150,9.94,73000.0,-1.29,-36.97,-37.27,0,*55
1518692762.51,45151,9.94,72998.3,-1.31,-37.45,-37.75,0,*54
1518692763.77,45152,9.94,73002.8,-1.35,-37.45,-37.93,0,*5B
1518692765.03,45153,9.94,72998.8,-1.35,-37.33,-37.63,0,*54
1518692766.29,45154,9.94,73002.0,-1.35,-36.85,-37.21,0,*59
1518692767.55,45155,9.94,73000.3,-1.39,-36.67,-36.91,0,*52
1518692768.8,45156,9.94,72998.0,-1.39,-36.19,-36.49,0,*5D
1518692770.06,45157,9.94,72996.8,-1.39,-36.73,-37.09,0,*55
1518692771.32,45158,9.94,72998.3,-1.39,-36.19,-36.49,0,*53
1518692772.58,45159,9.94,73000.5,-1.39,-36.67,-36.91,0,*5E
1518692773.81,45160,9.94,73000.5,-1.41,-36.91,-37.15,0,*5F
1518692775.09,45161,9.94,73002.5,-1.39,-37.39,-37.69,0,*59
1518692776.32,45162,9.94,73000.3,-1.41,-37.75,-38.11,0,*5D
1518692777.55,45163,9.94,72996.5,-1.43,-37.45,-37.75,0,*50
1518692778.81,45164,9.94,73000.3,-1.43,-37.57,-37.93,0,*5C
1518692780.04,45165,9.94,73000.3,-1.45,-37.75,-38.11,0,*5E
1518692781.3,45166,9.94,72998.5,-1.45,-38.11,-38.49,0,*5D
1518692782.54,45167,9.94,72996.0,-1.47,-38.17,-38.43,0,*52
1518692783.77,45168,9.94,73002.3,-1.49,-36.67,-36.85,0,*5E
1518692785.01,45169,9.94,73000.8,-1.49,-35.71,-35.89,0,*54
1518692786.27,45170,9.94,72998.3,-1.47,-36.85,-37.21,0,*5A
1518692787.5,45171,9.94,73002.0,-1.49,-37.27,-37.57,0,*5D
1518692788.76,45172,9.94,73000.3,-1.49,-37.21,-37.45,0,*5B
1518692790.02,45173,9.94,73002.5,-1.49,-37.03,-37.39,0,*51
1518692791.25,45174,9.94,73000.8,-1.49,-37.03,-37.27,0,*59
1518692792.51,45175,9.94,73002.0,-1.49,-37.27,-37.81,0,*52
1518692793.79,45176,9.94,72998.3,-1.53,-37.51,-37.69,0,*5D
1518692795.02,45177,9.94,73000.8,-1.53,-36.97,-37.33,0,*58
1518692796.25,45178,9.94,73000.3,-1.51,-36.79,-37.15,0,*51
1518692797.51,45179,9.94,73000.3,-1.53,-36.79,-37.15,0,*52
1518692798.77,45180,9.94,73000.5,-1.53,-37.45,-37.63,0,*5B
1518692800.01,45181,9.94,73000.5,-1.53,-36.43,-36.73,0,*5D
1518692801.27,45182,9.94,73002.5,-1.53,-36.61,-36.97,0,*54
1518692802.53,45183,9.94,73002.5,-1.53,-37.45,-37.63,0,*58
1518692803.81,45184,9.94,73000.3,-1.53,-37.69,-37.93,0,*5E
1518692805.05,45185,9.94,72998.3,-1.55,-37.15,-37.51,0,*5C
1518692806.31,45186,9.94,72996.3,-1.59,-36.37,-36.49,0,*5A
1518692807.58,45187,9.94,73002.5,-1.59,-36.61,-36.79,0,*5B
1518692808.84,45188,9.94,73002.3,-1.55,-36.79,-37.21,0,*5D
1518692810.05,45189,9.94,73004.8,-1.59,-36.85,-37.33,0,*50
1518692811.29,45190,9.94,72998.3,-1.59,-37.75,-37.99,0,*56
1518692812.53,45191,9.94,73002.5,-1.59,-38.11,-38.55,0,*55
1518692813.77,45192,9.94,73000.5,-1.61,-38.17,-38.55,0,*5B
1518692814.98,45193,9.94,73000.8,-1.63,-38.35,-38.61,0,*5F
1518692816.22,45194,9.94,73000.0,-1.63,-37.87,-38.23,0,*58
1518692817.44,45195,9.94,73000.0,-1.63,-37.87,-38.17,0,*5E
1518692818.68,45196,9.94,73000.0,-1.63,-37.87,-38.23,0,*5A
1518692819.94,45197,9.94,73004.0,-1.67,-37.93,-38.11,0,*5B
1518692821.15,45198,9.94,73002.5,-1.67,-37.03,-37.33,0,*52
1518692822.42,45199,9.94,73000.8,-1.67,-37.21,-37.51,0,*57
1518692823.65,45200,9.94,73002.5,-1.67,-36.79,-37.03,0,*5F
1518692824.89,45201,9.94,73000.5,-1.67,-37.03,-37.21,0,*52
1518692826.13,45202,9.94,73000.3,-1.67,-36.25,-36.43,0,*51
1518692827.35,45203,9.94,72998.8,-1.67,-35.71,-35.89,0,*57
1518692828.59,45204,9.94,73000.0,-1.67,-36.01,-36.25,0,*51
1518692829.83,45205,9.94,73000.0,-1.67,-36.43,-36.61,0,*56
1518692831.11,45206,9.94,72998.8,-1.65,-36.61,-36.91,0,*58
1518692832.34,45207,9.94,73002.0,-1.67,-36.79,-37.15,0,*5F
1518692833.61,45208,9.94,73000.0,-1.65,-36.91,-37.15,0,*54
1518692834.87,45209,9.94,72998.3,-1.65,-36.01,-36.13,0,*5B
1518692836.11,45210,9.94,72996.8,-1.67,-35.83,-36.01,0,*5B
1518692837.37,45211,9.94,73000.8,-1.65,-35.95,-36.19,0,*56
1518692838.6,45212,9.94,73000.0,-1.65,-36.01,-36.19,0,*5B
1518692839.84,45213,9.94,72998.5,-1.67,-36.07,-36.25,0,*51
1518692841.1,45214,9.94,73000.5,-1.65,-36.19,-36.37,0,*58
1518692842.34,45215,9.94,72996.8,-1.67,-36.25,-36.43,0,*57
1518692843.62,45216,9.94,73002.0,-1.65,-35.83,-36.13,0,*5C
1518692844.89,45217,9.94,72998.3,-1.63,-36.91,-37.39,0,*52
1518692846.1,45218,9.94,73000.5,-1.63,-36.55,-36.73,0,*5A
1518692847.34,45219,9.94,73000.8,-1.65,-35.77,-36.01,0,*5B
1518692848.63,45220,9.94,72998.5,-1.65,-35.23,-35.35,0,*54
1518692849.85,45221,9.94,72996.5,-1.63,-35.53,-35.71,0,*54
1518692851.07,45222,9.94,73000.5,-1.63,-36.07,-36.43,0,*57
1518692852.36,45223,9.94,73006.0,-1.61,-36.91,-37.21,0,*5E
1518692853.57,45224,9.94,72996.8,-1.63,-36.43,-36.73,0,*52
1518692854.81,45225,9.94,73002.5,-1.63,-36.13,-36.31,0,*50
1518692856.04,45226,9.94,73000.5,-1.63,-35.29,-35.35,0,*5E
1518692857.3,45227,10.0,73004.3,-1.61,-35.41,-35.71,0,*53
1518692858.56,45228,9.94,72996.8,-1.61,-36.49,-36.85,0,*5F
1518692859.83,45229,9.94,73002.3,-1.61,-35.71,-35.95,0,*54
1518692861.07,45230,9.94,73002.8,-1.61,-36.43,-36.55,0,*51
1518692862.32,45231,9.94,73002.8,-1.61,-36.43,-36.55,0,*50
1518692863.58,45232,9.94,72998.8,-1.61,-36.67,-36.91,0,*5D
1518692864.84,45233,9.94,73000.0,-1.61,-36.55,-36.91,0,*5D
1518692866.06,45234,9.94,73002.3,-1.63,-36.31,-36.43,0,*55
1518692867.27,45235,9.94,73000.0,-1.63,-36.07,-36.31,0,*54
1518692868.51,45236,9.94,73000.3,-1.63,-36.67,-37.09,0,*5B
1518692869.74,45237,9.94,73000.8,-1.61,-37.03,-37.27,0,*57
1518692870.96,45238,9.94,73000.3,-1.63,-36.67,-37.03,0,*5F
1518692872.22,45239,9.94,73002.3,-1.63,-36.13,-36.25,0,*58
1518692873.43,45240,9.94,73004.3,-1.63,-36.55,-36.85,0,*5E
1518692874.64,45241,9.94,73002.5,-1.63,-36.85,-37.27,0,*5B
1518692875.9,45242,9.94,73000.8,-1.63,-36.91,-37.39,0,*52
1518692877.14,45243,9.94,73004.0,-1.63,-37.39,-37.57,0,*58
1518692878.41,45244,10.0,73006.0,-1.63,-37.39,-37.63,0,*58
1518692879.62,45245,9.94,73000.5,-1.67,-37.33,-37.57,0,*50
1518692880.86,45246,9.94,73002.8,-1.67,-37.15,-37.39,0,*5F
1518692882.11,45247,9.94,73004.8,-1.65,-36.31,-36.49,0,*5D
1518692883.4,45248,9.94,73006.0,-1.65,-36.49,-36.61,0,*57
1518692884.68,45249,9.94,73006.3,-1.65,-36.61,-36.79,0,*55
1518692885.92,45250,9.94,73004.0,-1.67,-37.03,-37.39,0,*5F
1518692887.17,45251,9.94,73000.8,-1.65,-36.91,-37.33,0,*5C
1518692888.44,45252,9.94,72996.3,-1.65,-36.73,-37.09,0,*5A
1518692889.67,45253,9.94,73000.0,-1.67,-36.37,-36.43,0,*56
1518692890.89,45254,9.94,72998.8,-1.67,-36.19,-36.55,0,*5A
1518692892.15,45255,9.94,72998.3,-1.65,-36.61,-36.97,0,*58
1518692893.41,45256,9.94,73000.8,-1.67,-36.25,-36.37,0,*53
1518692894.67,45257,9.94,72998.0,-1.65,-36.31,-36.49,0,*5C
1518692895.9,45258,9.94,73000.3,-1.65,-36.97,-37.45,0,*52
1518692897.16,45259,9.94,72998.8,-1.65,-36.73,-37.09,0,*51
1518692898.38,45260,9.94,73000.8,-1.67,-36.55,-36.67,0,*54
1518692899.61,45261,9.94,73000.0,-1.67,-36.79,-37.15,0,*5F
1518692900.85,45262,9.94,73002.3,-1.67,-37.15,-37.51,0,*57
1518692902.11,45263,9.94,73002.3,-1.65,-37.09,-37.45,0,*5C
1518692903.35,45264,9.94,73002.0,-1.67,-37.21,-37.33,0,*52
1518692904.58,45265,9.94,73000.3,-1.67,-36.79,-37.15,0,*5B
1518692905.85,45266,9.94,73002.0,-1.71,-37.09,-37.39,0,*57